"2016-03-02 00:00:00",1421211,1.62,60.54,13.33,1.222,13.82,103.7912,8.98,10.21,23.81,0,110.3,13.15,9.76,22.5
"2016-03-02 00:00:30",1421212,2.237,54.21,10.56,1.416,13.62,103.7862,8.97,10.22,23.83,0,110.3,13.15,9.75,16.2
"2016-03-02 00:01:00",1421213,2.369,46.3,11.72,1.62,14.25,103.7836,8.96,10.15,23.73,0,110.3,13.15,9.74,8.3
"2016-03-02 00:01:30",1421214,1.949,57.28,5.8,1.156,12.88,103.784,8.96,10.11,23.73,0,110.3,13.15,9.75,19.3
"2016-03-02 00:02:00",1421215,0.993,67.06,12.24,0.168,11.2,103.7845,8.96,10,23.7,0,110.3,13.2,9.75,29.1
"2016-03-02 00:02:30",1421216,0.769,75.32,14.43,0.178,11.06,103.7854,8.97,10.01,23.69,0,110.3,13.2,9.75,37.3
"2016-03-02 00:03:00",1421217,1.027,44.55,7.485,0.168,11.02,103.7863,8.97,10,23.72,0,110.3,13.2,9.75,6.5
"2016-03-02 00:03:30",1421218,1.696,61.11,16.66,0.223,11.4,103.7863,8.97,10,23.73,0,110.3,13.2,9.75,23.1
"2016-03-02 00:04:00",1421219,1.572,80.2,10.56,0.36,11.81,103.7869,8.97,9.99,23.76,0,110.3,13.2,9.75,42.2
"2016-03-02 00:04:30",1421220,1.73,78.97,13.66,0.723,12.86,103.7857,8.97,10.1,23.88,0,110.3,13.16,9.75,41.0
"2016-03-02 00:05:00",1421221,2.912,73.84,12.57,1.409,14.38,103.7878,8.97,10.1,23.87,0,110.3,13.16,9.75,35.8
"2016-03-02 00:05:30",1421222,2.373,62.65,8.37,1.546,14.36,103.7866,8.97,10.17,23.9,0,110.3,13.16,9.75,24.7
"2016-03-02 00:06:00",1421223,2.968,65.1,8.22,1.349,14.93,103.7881,8.97,10.13,23.9,0,110.3,13.16,9.76,27.1
"2016-03-02 00:06:30",1421224,2.32,64.48,15.19,1.221,14.01,103.791,8.98,10.16,24.01,0,110.3,13.16,9.76,26.5
"2016-03-02 00:07:00",1421225,1.516,61.17,7.676,0.233,11.41,103.7916,8.98,9.99,23.77,0,110.3,13.2,9.76,23.2
"2016-03-02 00:07:30",1421226,2.45,61.7,6.3,0.477,11.16,103.7922,8.98,9.99,23.7,0,110.3,13.2,9.77,23.7
"2016-03-02 00:08:00",1421227,2.87,68.99,2.128,0.134,11.21,103.7925,8.98,9.99,23.53,0,110.3,13.2,9.77,31.0
"2016-03-02 00:08:30",1421228,3.34,86.6,11.48,0.364,11.18,103.7927,8.98,9.99,23.23,0,110.3,13.21,9.77,48.6
"2016-03-02 00:09:00",1421229,4.548,102.3,5.198,1.3,12.75,103.7927,8.98,10.08,22.62,0,110.3,13.16,9.77,64.3
"2016-03-02 00:09:30",1421230,4.878,113.2,7.406,1.339,14.19,103.7927,8.98,10.19,22.41,0,110.3,13.16,9.77,75.2
"2016-03-02 00:10:00",1421231,5.049,108.3,9.49,1.412,15.15,103.786,8.97,10.24,22.18,0,110.3,13.16,9.75,70.3
"2016-03-02 00:10:30",1421232,4.53,116.3,8.54,1.387,13.73,103.771,8.93,10.16,22.27,0,110.3,13.16,9.71,78.3
"2016-03-02 00:11:00",1421233,3.677,110.1,10.06,1.009,11.62,103.7592,8.9,9.96,22.18,0,110.3,13.16,9.68,72.1
"2016-03-02 00:11:30",1421234,2.626,96.2,6.653,0.284,11.2,103.7589,8.9,9.94,22.27,0,110.3,13.2,9.68,58.2
"2016-03-02 00:12:00",1421235,3.038,93.2,3.666,0.197,11.28,103.7586,8.9,9.92,22.47,0,110.3,13.21,9.68,55.2
"2016-03-02 00:12:30",1421236,3.321,96.5,7.302,1.277,12.91,103.7482,8.87,10,22.67,0,110.3,13.16,9.65,58.5
"2016-03-02 00:13:00",1421237,4.267,109.2,6.361,1.623,14.11,103.7374,8.84,10.09,22.95,0,110.2,13.16,9.63,71.2
"2016-03-02 00:13:30",1421238,4.493,108.9,6.869,1.467,13.99,103.725,8.81,10.02,22.89,0,110.2,13.16,9.59,70.9
"2016-03-02 00:14:00",1421239,4.601,103.9,6.777,1.393,15.07,103.725,8.81,10.06,22.98,0,110.2,13.15,9.59,65.9
"2016-03-02 00:14:30",1421240,3.16,106.7,10.21,1.3,13.01,103.7247,8.81,9.99,23.02,0,110.2,13.15,9.59,68.7
"2016-03-02 00:15:00",1421241,2.906,102.6,3.172,0.164,11.28,103.7151,8.79,9.86,23,0,110.2,13.2,9.57,64.6
"2016-03-02 00:15:30",1421242,2.684,107.4,5.101,0.147,11.08,103.7064,8.76,9.82,23.02,0,110.2,13.2,9.55,69.4
"2016-03-02 00:16:00",1421243,2.431,102.6,1.623,0.085,11.34,103.692,8.73,9.83,23.18,0,110.2,13.2,9.51,64.6
"2016-03-02 00:16:30",1421244,3.706,105.6,6.601,1.404,13.59,103.6912,8.72,9.9,23.43,0,110.2,13.15,9.51,67.6
"2016-03-02 00:17:00",1421245,3.701,107.1,8.36,1.356,13.37,103.6912,8.72,9.94,23.46,0,110.2,13.16,9.51,69.1
"2016-03-02 00:17:30",1421246,3.167,105.4,6.635,1.215,13.17,103.6912,8.72,9.88,23.44,0,110.2,13.15,9.51,67.4
"2016-03-02 00:18:00",1421247,4.325,116.6,8.25,1.425,15.08,103.6881,8.72,10.04,23.62,0,110.2,13.16,9.50,78.6
"2016-03-02 00:18:30",1421248,3.489,113,8.87,1.264,12.87,103.6756,8.68,9.88,23.45,0,110.2,13.16,9.47,75.0
"2016-03-02 00:19:00",1421249,3.519,115.4,6.259,1.221,12.46,103.6593,8.64,9.81,23.14,0,110.2,13.16,9.43,77.4
"2016-03-02 00:19:30",1421250,2.903,110.8,2.14,0.155,11.12,103.6573,8.64,9.73,23.08,0,110.2,13.21,9.42,72.8
"2016-03-02 00:20:00",1421251,3.403,112.3,3.16,0.889,11.93,103.6573,8.64,9.75,23.03,0,110.2,13.17,9.42,74.3
"2016-03-02 00:20:30",1421252,3.425,108,6.435,1.234,12.8,103.6573,8.64,9.86,23.33,0,110.2,13.17,9.42,70.0
"2016-03-02 00:21:00",1421253,3.538,122.3,7.089,1.187,12.78,103.657,8.64,9.8,23.22,0,110.2,13.17,9.42,84.3
"2016-03-02 00:21:30",1421254,3.772,116.3,5.618,1.356,13.9,103.6522,8.62,9.89,23.24,0,110.2,13.17,9.41,78.3
"2016-03-02 00:22:00",1421255,3.991,119.2,7.389,1.439,14.2,103.6452,8.61,9.84,23.27,0,110.2,13.17,9.39,81.2
"2016-03-02 00:22:30",1421256,3.286,116.3,7.375,1.43,13.26,103.6399,8.59,9.85,23.25,0,110.2,13.17,9.38,78.3
"2016-03-02 00:23:00",1421257,2.604,113.6,6.004,0.927,11.71,103.6312,8.57,9.68,23.07,0,110.2,13.17,9.35,75.6
"2016-03-02 00:23:30",1421258,2.405,110.9,1.446,0.123,11.05,103.6275,8.56,9.65,23.01,0,110.2,13.22,9.34,72.9
"2016-03-02 00:24:00",1421259,2.459,111.7,7.33,0.339,11.21,103.6293,8.57,9.65,23.04,0,110.2,13.22,9.35,73.7
"2016-03-02 00:24:30",1421260,3.966,129.2,10.05,1.416,14.01,103.6319,8.57,9.83,23.03,0,110.2,13.17,9.35,91.2
"2016-03-02 00:25:00",1421261,2.864,118.3,7.147,0.889,12.32,103.6322,8.57,9.75,22.79,0,110.3,13.17,9.36,80.3
"2016-03-02 00:25:30",1421262,3.885,120,8.42,1.42,13.86,103.6229,8.55,9.82,22.82,0,110.2,13.17,9.33,82.0
"2016-03-02 00:26:00",1421263,4.445,120.9,8.69,1.464,13.72,103.6161,8.53,9.73,22.65,0,110.2,13.17,9.31,82.9
"2016-03-02 00:26:30",1421264,3.811,126.8,7.982,1.446,13.55,103.6163,8.53,9.78,22.63,0,110.2,13.17,9.31,88.8
"2016-03-02 00:27:00",1421265,2.886,121,5.948,0.913,11.44,103.6044,8.5,9.58,22.48,0,110.2,13.17,9.28,83.0
"2016-03-02 00:27:30",1421266,2.489,117.4,2.477,0.208,10.95,103.6071,8.51,9.57,22.48,0,110.2,13.22,9.29,79.4
"2016-03-02 00:28:00",1421267,3.086,120.9,8.31,1.214,12.3,103.6065,8.51,9.64,22.53,0,110.2,13.17,9.29,82.9
"2016-03-02 00:28:30",1421268,4.16,125.9,8.36,1.457,14.01,103.6086,8.51,9.74,22.64,0,110.2,13.17,9.29,87.9
"2016-03-02 00:29:00",1421269,3.178,116.7,5.826,1.026,11.84,103.6014,8.49,9.56,22.48,0,110.2,13.17,9.28,78.7
"2016-03-02 00:29:30",1421270,4.142,123.5,8.36,1.404,13.58,103.5922,8.47,9.73,22.52,0,110.2,13.17,9.25,85.5
"2016-03-02 00:30:00",1421271,3.969,124.5,9.04,1.401,13.31,103.582,8.45,9.69,22.47,0,110.2,13.17,9.23,86.5
"2016-03-02 00:30:30",1421272,3.849,129.8,7.542,1.27,12.43,103.5849,8.45,9.65,22.29,0,110.2,13.17,9.23,91.8
"2016-03-02 00:31:00",1421273,2.843,118.4,3.853,0.212,11,103.5867,8.46,9.48,22.24,0,110.2,13.21,9.24,80.4
"2016-03-02 00:31:30",1421274,3.46,129.4,3.252,0.542,10.95,103.5885,8.46,9.49,22.26,0,110.2,13.17,9.24,91.4
"2016-03-02 00:32:00",1421275,4.193,132.2,7.373,1.362,13.24,103.5777,8.43,9.68,22.58,0,110.2,13.17,9.22,94.2
"2016-03-02 00:32:30",1421276,5.038,131.3,7.266,1.386,13.96,103.5667,8.41,9.61,22.35,0,110.2,13.17,9.19,93.3
"2016-03-02 00:33:00",1421277,4.01,125.8,8.17,1.139,12.81,103.56,8.39,9.59,22.48,0,110.2,13.17,9.17,87.8
"2016-03-02 00:33:30",1421278,5.224,131.6,7.834,1.409,13.56,103.5566,8.38,9.6,22.34,0,110.2,13.17,9.16,93.6
"2016-03-02 00:34:00",1421279,5.005,130.5,7.529,1.299,12.63,103.5569,8.38,9.55,22.06,0,110.2,13.17,9.16,92.5
"2016-03-02 00:34:30",1421280,3.993,127.3,1.031,0.065,10.98,103.5535,8.37,9.45,21.88,0,110.2,13.21,9.15,89.3
"2016-03-02 00:35:00",1421281,4.758,131.2,5.407,1.11,11.71,103.5411,8.34,9.48,21.92,0,110.2,13.17,9.12,93.2
"2016-03-02 00:35:30",1421282,5.376,134.8,7.18,1.414,12.61,103.5239,8.3,9.47,21.95,0,110.2,13.17,9.08,96.8
"2016-03-02 00:36:00",1421283,5.48,137.2,7.157,1.595,13.83,103.523,8.29,9.61,22.17,0,110.2,13.18,9.08,99.2
"2016-03-02 00:36:30",1421284,5.824,135.9,7.006,1.362,13.8,103.523,8.29,9.46,22.11,0,110.2,13.18,9.08,97.9
"2016-03-02 00:37:00",1421285,5.199,133.4,7.39,1.316,12.92,103.5219,8.29,9.53,22.14,0,110.2,13.18,9.07,95.4
"2016-03-02 00:37:30",1421286,5.367,133.9,6.905,1.349,12.89,103.5146,8.27,9.45,22.06,0,110.2,13.18,9.05,95.9
"2016-03-02 00:38:00",1421287,4.503,128.7,0.79,0.099,10.92,103.5047,8.25,9.29,21.96,0,110.2,13.22,9.03,90.7
"2016-03-02 00:38:30",1421288,5.782,135,7.6,1.347,13.21,103.492,8.22,9.44,22.14,0,110.2,13.18,9.00,97.0
"2016-03-02 00:39:00",1421289,5.776,134.1,6.723,1.452,13.56,103.4892,8.21,9.46,22.26,0,110.2,13.18,8.99,96.1
"2016-03-02 00:39:30",1421290,5.783,133.4,7.249,1.373,13.62,103.4892,8.21,9.5,22.33,0,110.2,13.18,8.99,95.4
"2016-03-02 00:40:00",1421291,6.062,135,7.71,1.487,13.7,103.4889,8.21,9.43,22.2,0,110.2,13.18,8.99,97.0
"2016-03-02 00:40:30",1421292,5.87,134.5,7.025,1.384,13.5,103.4804,8.19,9.35,22.15,0,110.2,13.18,8.97,96.5
"2016-03-02 00:41:00",1421293,4.398,129.1,0.848,0.123,11.01,103.4748,8.17,9.25,22.09,0,110.2,13.23,8.95,91.1
"2016-03-02 00:41:30",1421294,4.883,132.6,6.371,1.217,12.08,103.466,8.15,9.3,22.2,0,110.2,13.18,8.93,94.6
"2016-03-02 00:42:00",1421295,5.604,139.6,7.078,1.464,13.86,103.4561,8.12,9.41,22.3,0,110.1,13.18,8.90,101.6
"2016-03-02 00:42:30",1421296,5.401,138.4,7.135,1.359,13.71,103.4553,8.12,9.37,22.29,0,110.2,13.18,8.90,100.4
"2016-03-02 00:43:00",1421297,4.77,136,5.697,1.151,12.3,103.4553,8.12,9.25,22.18,0,110.2,13.18,8.90,98.0
"2016-03-02 00:43:30",1421298,5.758,138.7,7.353,1.386,14.05,103.4553,8.12,9.34,22.37,0,110.2,13.18,8.90,100.7
"2016-03-02 00:44:00",1421299,4.991,134.9,6.824,1.307,12.2,103.455,8.12,9.26,22.33,0,110.2,13.18,8.90,96.9
"2016-03-02 00:44:30",1421300,4.222,130.8,1.152,0.097,11.02,103.4482,8.1,9.15,22.37,0,110.1,13.23,8.88,92.8
"2016-03-02 00:45:00",1421301,4.875,137.9,9.87,1.428,13.39,103.4423,8.09,9.34,22.93,0,110.1,13.18,8.87,99.9
"2016-03-02 00:45:30",1421302,5.07,136.4,7.945,1.458,14.49,103.4395,8.08,9.37,23.2,0,110.1,13.18,8.86,98.4
"2016-03-02 00:46:00",1421303,4.741,131.9,7.479,1.475,13.65,103.4383,8.08,9.32,23.18,0,110.1,13.18,8.86,93.9
"2016-03-02 00:46:30",1421304,4.552,131.1,7.321,1.212,12.37,103.4381,8.08,9.21,22.66,0,110.1,13.18,8.86,93.1
"2016-03-02 00:47:00",1421305,4.903,135.2,6.618,1.303,12.88,103.4378,8.08,9.22,22.67,0,110.1,13.18,8.86,97.2
"2016-03-02 00:47:30",1421306,4.621,135.2,6.63,1.336,12.76,103.431,8.06,9.21,22.75,0,110.1,13.18,8.84,97.2
"2016-03-02 00:48:00",1421307,3.632,131.6,3.853,0.766,11.72,103.4277,8.05,9.23,22.88,0,110.1,13.17,8.83,93.6
"2016-03-02 00:48:30",1421308,4.289,130.1,9.8,1.507,13.48,103.4263,8.05,9.19,23.1,0,110.1,13.17,8.83,92.1
"2016-03-02 00:49:00",1421309,4.266,141.2,6.406,1.603,13.99,103.4312,8.06,9.3,23.46,0,110.1,13.17,8.84,103.2
"2016-03-02 00:49:30",1421310,4.543,131.9,5.879,1.291,13.03,103.4304,8.06,9.19,23.08,0,110.1,13.18,8.84,93.9
"2016-03-02 00:50:00",1421311,3.612,131,3.427,0.551,11.39,103.4301,8.06,9.16,22.85,0,110.1,13.19,8.84,93.0
"2016-03-02 00:50:30",1421312,4.939,136.4,6.419,1.426,13.77,103.4307,8.06,9.24,22.89,0,110.1,13.18,8.84,98.4
"2016-03-02 00:51:00",1421313,4.076,128.6,7.071,1.129,12.56,103.4307,8.06,9.2,22.87,0,110.1,13.17,8.84,90.6
"2016-03-02 00:51:30",1421314,3.491,119.8,5.839,0.561,11.25,103.4305,8.06,9.13,22.89,0,110.1,13.18,8.84,81.8
"2016-03-02 00:52:00",1421315,4.971,129,7.253,1.415,13.93,103.4325,8.06,9.24,22.97,0,110.1,13.18,8.84,91.0
"2016-03-02 00:52:30",1421316,4.475,124.6,7.061,1.387,13.49,103.4354,8.07,9.25,22.93,0,110.1,13.18,8.85,86.6
"2016-03-02 00:53:00",1421317,4.467,124.6,6.932,1.371,13.08,103.4345,8.07,9.19,22.87,0,110.1,13.19,8.85,86.6
"2016-03-02 00:53:30",1421318,3.733,122.4,5.378,1.037,12.25,103.434,8.07,9.19,22.87,0,110.1,13.19,8.85,84.4
"2016-03-02 00:54:00",1421319,4.17,123.9,7.013,1.413,12.84,103.4354,8.07,9.2,22.9,0,110.1,13.19,8.85,85.9
"2016-03-02 00:54:30",1421320,3.728,124.1,6.18,1.325,12.51,103.4354,8.07,9.18,22.86,0,110.1,13.19,8.85,86.1
"2016-03-02 00:55:00",1421321,3.369,124.2,5.951,1.15,12.25,103.438,8.08,9.18,22.87,0,110.1,13.19,8.86,86.2
"2016-03-02 00:55:30",1421322,3.649,128.4,6.691,1.262,12.64,103.4386,8.08,9.19,22.92,0,110.1,13.19,8.86,90.4
"2016-03-02 00:56:00",1421323,4.199,133.6,7.007,1.428,13.95,103.4395,8.08,9.26,23.02,0,110.1,13.19,8.86,95.6
"2016-03-02 00:56:30",1421324,3.779,133.4,7.019,1.293,12.71,103.4395,8.08,9.19,22.96,0,110.1,13.19,8.86,95.4
"2016-03-02 00:57:00",1421325,2.921,129.6,0.633,0.038,11.03,103.4416,8.09,9.1,22.87,0,110.1,13.19,8.87,91.6
"2016-03-02 00:57:30",1421326,3.976,137.7,7.075,1.319,12.88,103.4422,8.09,9.26,23.05,0,110.1,13.19,8.87,99.7
"2016-03-02 00:58:00",1421327,4.034,138.3,6.92,1.266,12.64,103.4414,8.09,9.19,23.02,0,110.1,13.19,8.87,100.3
"2016-03-02 00:58:30",1421328,3.158,136.1,0.872,0.03,10.84,103.4406,8.08,9.07,22.87,0,110.1,13.24,8.86,98.1
"2016-03-02 00:59:00",1421329,4.135,144,7.34,1.322,13.16,103.4395,8.08,9.25,23.08,0,110,13.19,8.86,106.0
"2016-03-02 00:59:30",1421330,5.171,150.1,6.927,1.359,15.2,103.4313,8.06,9.28,23.11,0,110.1,13.19,8.84,112.1
"2016-03-02 01:00:00",1421331,4.392,149.2,6.985,1.361,13.18,103.4313,8.06,9.16,23.02,0,110.1,13.19,8.84,111.2
"2016-03-02 01:00:30",1421332,3.32,143.7,1.622,0.126,11.24,103.4297,8.06,9.12,22.9,0,110.1,13.24,8.84,105.7
"2016-03-02 01:01:00",1421333,4.803,153.4,6.834,1.463,13.67,103.4265,8.05,9.18,22.95,0,110.1,13.19,8.83,115.4
"2016-03-02 01:01:30",1421334,4.31,154.2,7.421,1.343,12.54,103.4216,8.04,9.15,22.91,0,110.1,13.19,8.82,116.2
"2016-03-02 01:02:00",1421335,3.067,145,3.088,0.192,10.96,103.4214,8.03,9.07,22.87,0,110.1,13.24,8.81,107.0
"2016-03-02 01:02:30",1421336,3.995,170,8.05,1.367,14.23,103.4211,8.03,9.2,23.28,0,110.1,13.19,8.81,132.0
"2016-03-02 01:03:00",1421337,3.179,165.9,7.519,1.372,13.92,103.4211,8.03,9.26,23.53,0,110.1,13.19,8.81,127.9
"2016-03-02 01:03:30",1421338,3.327,158.8,7.877,1.415,13.66,103.4223,8.04,9.13,23.43,0,110.1,13.19,8.82,120.8
"2016-03-02 01:04:00",1421339,1.893,152.7,2.253,0.134,11.26,103.4223,8.04,9.07,23.39,0,110.1,13.23,8.82,114.7
"2016-03-02 01:04:30",1421340,2.905,158.4,8.3,0.909,11.75,103.4226,8.04,9.04,23.39,0,110.1,13.19,8.82,120.4
"2016-03-02 01:05:00",1421341,3.921,159.6,9.87,1.498,13.89,103.4223,8.04,9.23,23.56,0,110.1,13.19,8.82,121.6
"2016-03-02 01:05:30",1421342,2.773,150.4,2.679,0.51,11.15,103.4226,8.04,9.07,23.41,0,110.1,13.19,8.82,112.4
"2016-03-02 01:06:00",1421343,2.954,150.2,0.739,0.071,11.23,103.4226,8.04,9.02,23.3,0,110.1,13.24,8.82,112.2
"2016-03-02 01:06:30",1421344,3.711,153.4,7.031,1.226,12.89,103.4226,8.04,9.18,23.39,0,110.1,13.19,8.82,115.4
"2016-03-02 01:07:00",1421345,4.947,158.7,6.419,1.314,15.2,103.4226,8.04,9.24,23.42,0,110.1,13.19,8.82,120.7
"2016-03-02 01:07:30",1421346,3.575,151,6.566,1.246,12.6,103.4226,8.04,9.16,23.35,0,110.1,13.19,8.82,113.0
"2016-03-02 01:08:00",1421347,2.894,147.4,2.77,0.734,11.06,103.4226,8.04,9.02,23.21,0,110.1,13.19,8.82,109.4
"2016-03-02 01:08:30",1421348,3.501,153.2,7.017,1.298,12.72,103.4226,8.04,9.21,23.42,0,110.1,13.19,8.82,115.2
"2016-03-02 01:09:00",1421349,3.113,156.5,5.786,1.211,12.13,103.4226,8.04,9.1,23.29,0,110.1,13.19,8.82,118.5
"2016-03-02 01:09:30",1421350,2.608,154.6,0.858,0.061,10.92,103.4226,8.04,9.02,23.19,0,110.1,13.24,8.82,116.6
"2016-03-02 01:10:00",1421351,2.829,155.9,4.423,0.883,11.45,103.4226,8.04,9.08,23.27,0,110.1,13.2,8.82,117.9
"2016-03-02 01:10:30",1421352,4.064,161.3,7.225,1.431,14.04,103.4226,8.04,9.17,23.37,0,110.1,13.2,8.82,123.3
"2016-03-02 01:11:00",1421353,4.264,162.2,7.616,1.434,14.42,103.422,8.04,9.19,23.39,0,110.1,13.2,8.82,124.2
"2016-03-02 01:11:30",1421354,3.413,160.4,7.355,1.288,12.89,103.4212,8.03,9.15,23.35,0,110.1,13.2,8.81,122.4
"2016-03-02 01:12:00",1421355,3.567,158.2,6.929,1.278,12.84,103.4195,8.03,9.12,23.36,0,110.1,13.2,8.81,120.2
"2016-03-02 01:12:30",1421356,3.5,156.5,6.771,1.277,12.69,103.4183,8.03,9.18,23.41,0,110.1,13.2,8.81,118.5
"2016-03-02 01:13:00",1421357,2.851,155.7,4.632,0.715,11.41,103.4183,8.03,9.04,23.33,0,110.1,13.2,8.81,117.7
"2016-03-02 01:13:30",1421358,2.684,152.8,1.253,0.045,10.76,103.4161,8.02,9.02,23.3,0,110.1,13.24,8.80,114.8
"2016-03-02 01:14:00",1421359,3.331,156.6,5.919,1.2,12.65,103.4147,8.02,9.14,23.42,0,110.1,13.2,8.80,118.6
"2016-03-02 01:14:30",1421360,3.803,157.4,7.032,1.421,13.89,103.4135,8.01,9.18,23.48,0,110.1,13.2,8.79,119.4
"2016-03-02 01:15:00",1421361,4.044,160.5,7.671,1.403,14.36,103.4135,8.01,9.18,23.47,0,110.1,13.2,8.79,122.5
"2016-03-02 01:15:30",1421362,2.434,153.3,2.977,0.718,11.49,103.4138,8.02,9.08,23.37,0,110.1,13.2,8.80,115.3
"2016-03-02 01:16:00",1421363,3.405,159.3,7.146,1.429,13.1,103.4116,8.01,9.12,23.41,0,110.1,13.2,8.79,121.3
"2016-03-02 01:16:30",1421364,2.971,157.3,6.278,1.296,12.56,103.413,8.01,9.11,23.41,0,110.1,13.2,8.79,119.3
"2016-03-02 01:17:00",1421365,2.244,153.6,0.846,0.056,11.15,103.4124,8.01,9,23.34,0,110.1,13.25,8.79,115.6
"2016-03-02 01:17:30",1421366,2.085,152.3,1.152,0.059,11.08,103.4116,8.01,9,23.35,0,110.1,13.25,8.79,114.3
"2016-03-02 01:18:00",1421367,2.895,157.4,7.078,1.294,12.79,103.4116,8.01,9.12,23.49,0,110.1,13.2,8.79,119.4
"2016-03-02 01:18:30",1421368,2.946,156.2,7.207,1.344,13.34,103.4082,8,9.21,23.58,0,110.1,13.2,8.78,118.2
"2016-03-02 01:19:00",1421369,3.659,159.3,7.164,1.409,14.51,103.4062,7.996,9.18,23.57,0,110.1,13.2,8.78,121.3
"2016-03-02 01:19:30",1421370,2.586,153,6.066,1.083,12.48,103.4056,7.994,9.14,23.51,0,110.1,13.2,8.77,115.0
"2016-03-02 01:20:00",1421371,3.605,159.8,8.08,1.443,13.58,103.4039,7.99,9.14,23.51,0,110.1,13.2,8.77,121.8
"2016-03-02 01:20:30",1421372,2.869,156.8,6.718,1.249,12.45,103.4045,7.991,9.11,23.49,0,110.1,13.19,8.77,118.8
"2016-03-02 01:21:00",1421373,2.181,153.2,1.722,0.081,11,103.4022,7.986,9,23.4,0,110.1,13.24,8.77,115.2
"2016-03-02 01:21:30",1421374,2.259,152.6,1.514,0.048,11.21,103.4022,7.986,9.02,23.41,0,110.1,13.24,8.77,114.6
"2016-03-02 01:22:00",1421375,3.041,154.6,6.42,1.259,12.68,103.4031,7.988,9.11,23.5,0,110.1,13.19,8.77,116.6
"2016-03-02 01:22:30",1421376,3.261,155.6,7.113,1.277,12.99,103.4022,7.986,9.17,23.56,0,110.1,13.19,8.77,117.6
"2016-03-02 01:23:00",1421377,4.019,156.3,7.766,1.351,14.32,103.4036,7.989,9.15,23.57,0,110.1,13.19,8.77,118.3
"2016-03-02 01:23:30",1421378,4.508,157.6,7.135,1.378,14.59,103.4045,7.991,9.18,23.52,0,110.1,13.19,8.77,119.6
"2016-03-02 01:24:00",1421379,3.618,152.7,7.181,1.281,12.52,103.4039,7.99,9.14,23.51,0,110.1,13.19,8.77,114.7
"2016-03-02 01:24:30",1421380,3.725,153.9,5.353,1.273,12.35,103.4022,7.986,9.09,23.42,0,110.1,13.19,8.77,115.9
"2016-03-02 01:25:00",1421381,3.007,152.6,0.803,0.035,10.96,103.3971,7.973,9.01,23.26,0,110.1,13.24,8.75,114.6
"2016-03-02 01:25:30",1421382,2.998,152.6,0.955,0.038,11.03,103.3949,7.967,9,23.19,0,110.1,13.24,8.75,114.6
"2016-03-02 01:26:00",1421383,4.275,159.4,7.528,1.393,13.54,103.3952,7.968,9.19,23.33,0,110.1,13.2,8.75,121.4
"2016-03-02 01:26:30",1421384,4.261,161.4,7.191,1.396,13.78,103.398,7.975,9.14,23.22,0,110.1,13.2,8.75,123.4
"2016-03-02 01:27:00",1421385,4.129,161.7,6.978,1.376,13.4,103.3915,7.958,9.18,23.23,0,110.1,13.2,8.74,123.7
"2016-03-02 01:27:30",1421386,4.09,162.7,6.892,1.399,13.43,103.3901,7.955,9.17,23.24,0,110.1,13.2,8.73,124.7
"2016-03-02 01:28:00",1421387,3.686,161.9,7.259,1.329,12.66,103.3887,7.951,9.09,23.11,0,110.1,13.2,8.73,123.9
"2016-03-02 01:28:30",1421388,2.867,158.6,0.968,0.035,11,103.3893,7.952,9,22.97,0,110.1,13.25,8.73,120.6
"2016-03-02 01:29:00",1421389,2.863,159.7,0.596,0.019,11.13,103.389,7.952,8.99,22.98,0,110.1,13.25,8.73,121.7
"2016-03-02 01:29:30",1421390,3.552,163.6,6.634,1.234,12.6,103.3907,7.956,9.05,23.07,0,110.1,13.2,8.74,125.6
"2016-03-02 01:30:00",1421391,4.394,168.9,7.441,1.439,14.34,103.3893,7.952,9.2,23.2,0,110.1,13.2,8.73,130.9
"2016-03-02 01:30:30",1421392,4.437,168,6.927,1.416,13.96,103.3895,7.953,9.17,23.17,0,110.1,13.2,8.73,130.0
"2016-03-02 01:31:00",1421393,4.766,170,7.242,1.415,14.45,103.3895,7.953,9.14,23.12,0,110.1,13.2,8.73,132.0
"2016-03-02 01:31:30",1421394,4.239,168.4,7.381,1.392,13.38,103.3893,7.952,9.2,23.13,0,110.1,13.2,8.73,130.4
"2016-03-02 01:32:00",1421395,3.123,164.5,0.723,0.025,10.66,103.3901,7.955,8.99,22.9,0,110.1,13.25,8.73,126.5
"2016-03-02 01:32:30",1421396,3.134,165.8,0.523,0.035,10.7,103.391,7.957,8.99,22.91,0,110.1,13.25,8.74,127.8
"2016-03-02 01:33:00",1421397,3.47,168.4,5.491,0.971,11.68,103.391,7.957,9,22.95,0,110.1,13.2,8.74,130.4
"2016-03-02 01:33:30",1421398,4.496,173.8,6.93,1.431,14.1,103.3942,7.965,9.18,23.17,0,110.1,13.2,8.74,135.8
"2016-03-02 01:34:00",1421399,4.558,174.4,7.058,1.433,15.05,103.3948,7.967,9.23,23.23,0,110.1,13.2,8.75,136.4
"2016-03-02 01:34:30",1421400,4.849,177,6.888,1.279,15.28,103.398,7.975,9.14,23.15,0,110.1,13.2,8.75,139.0
"2016-03-02 01:35:00",1421401,3.496,170.2,6.427,1.285,12.9,103.4003,7.981,9.13,23.15,0,110.1,13.2,8.76,132.2
"2016-03-02 01:35:30",1421402,3.286,167.8,6.158,1.16,11.9,103.3977,7.974,9.02,23.02,0,110.1,13.2,8.75,129.8
"2016-03-02 01:36:00",1421403,2.712,164.7,0.877,0.025,10.74,103.3988,7.977,8.99,22.99,0,110.1,13.25,8.76,126.7
"2016-03-02 01:36:30",1421404,2.777,166,0.509,0.034,11.1,103.3966,7.971,8.99,23.03,0,110.1,13.25,8.75,128.0
"2016-03-02 01:37:00",1421405,3.54,170.5,6.28,1.272,12.86,103.398,7.975,9.07,23.12,0,110.1,13.2,8.75,132.5
"2016-03-02 01:37:30",1421406,4.285,173.3,7.402,1.413,13.8,103.3995,7.979,9.18,23.2,0,110.1,13.2,8.76,135.3
"2016-03-02 01:38:00",1421407,4.84,176.8,7.129,1.391,14.96,103.4,7.98,9.22,23.21,0,110.1,13.2,8.76,138.8
"2016-03-02 01:38:30",1421408,4.579,175.6,7.472,1.396,14.28,103.3994,7.979,9.18,23.14,0,110.1,13.19,8.76,137.6
"2016-03-02 01:39:00",1421409,3.933,172.5,6.52,1.238,12.83,103.4023,7.986,9.11,23.06,0,110.1,13.19,8.77,134.5
"2016-03-02 01:39:30",1421410,3.26,168.8,0.531,0.03,10.97,103.4009,7.982,8.98,22.97,0,110.1,13.24,8.76,130.8
"2016-03-02 01:40:00",1421411,3.293,168.6,0.537,0.031,11.01,103.4043,7.991,9,22.96,0,110.1,13.24,8.77,130.6
"2016-03-02 01:40:30",1421412,3.365,169.3,0.705,0.059,11.26,103.4052,7.993,8.99,22.98,0,110.1,13.24,8.77,131.3
"2016-03-02 01:41:00",1421413,4.62,176.7,7.358,1.422,13.78,103.4112,8.01,9.21,23.2,0,110.1,13.2,8.79,138.7
"2016-03-02 01:41:30",1421414,5.284,179.3,7.129,1.374,15.28,103.4141,8.02,9.23,23.23,0,110.1,13.2,8.80,141.3
"2016-03-02 01:42:00",1421415,5.485,181.6,7.322,1.379,15.04,103.4166,8.02,9.19,23.17,0,110.1,13.2,8.80,143.6
"2016-03-02 01:42:30",1421416,4.373,177.6,6.488,1.247,12.87,103.4162,8.02,9.18,23.17,0,110.1,13.2,8.80,139.6
"2016-03-02 01:43:00",1421417,3.73,173.9,0.57,0.061,10.72,103.4168,8.02,8.98,23.02,0,110.1,13.25,8.80,135.9
"2016-03-02 01:43:30",1421418,3.648,174.8,0.537,0.063,10.72,103.4194,8.03,9,23.04,0,110.1,13.25,8.81,136.8
"2016-03-02 01:44:00",1421419,3.494,173.5,1.101,0.122,11.07,103.4177,8.03,9.01,23.06,0,110.1,13.25,8.81,135.5
"2016-03-02 01:44:30",1421420,4.306,177.5,6.861,1.362,13.17,103.4197,8.03,9.09,23.24,0,110.1,13.2,8.81,139.5
"2016-03-02 01:45:00",1421421,4.958,183.8,7.412,1.383,14.86,103.4212,8.03,9.22,23.48,0,110.1,13.21,8.81,145.8
"2016-03-02 01:45:30",1421422,4.938,185.3,7.266,1.382,14.9,103.4237,8.04,9.23,23.64,0,110.1,13.2,8.82,147.3
"2016-03-02 01:46:00",1421423,4.263,187.9,8.76,1.381,13.6,103.424,8.04,9.12,23.67,0,110.1,13.2,8.82,149.9
"2016-03-02 01:46:30",1421424,2.811,186.6,5.764,0.627,11.51,103.4282,8.05,9.08,23.8,0,110.1,13.21,8.83,148.6
"2016-03-02 01:47:00",1421425,2.13,188.5,4.21,0.208,11.12,103.4319,8.06,9.01,23.87,0,110.1,13.25,8.84,150.5
"2016-03-02 01:47:30",1421426,2.215,190.1,4.334,0.21,11.3,103.4325,8.06,9.01,23.97,0,110.1,13.25,8.84,152.1
"2016-03-02 01:48:00",1421427,2.474,204.7,7.428,1.17,12.77,103.4347,8.07,9.07,24.06,0,110.1,13.21,8.85,166.7
"2016-03-02 01:48:30",1421428,2.869,221.5,10.96,1.369,14.31,103.4361,8.07,9.22,24.36,0,110.1,13.21,8.85,183.5
"2016-03-02 01:49:00",1421429,1.777,224.9,6.079,0.698,12.29,103.4404,8.08,9.12,24.5,0,110.1,13.21,8.86,186.9
"2016-03-02 01:49:30",1421430,2.814,237.7,7.494,1.411,13.78,103.4395,8.08,9.17,24.67,0,110.1,13.21,8.86,199.7
"2016-03-02 01:50:00",1421431,2.314,231.4,7.602,1.336,13.27,103.4416,8.09,9.21,24.75,0,110.1,13.2,8.87,193.4